• In Netherlands
  • List of Countries
  • For 7 days
  • Water Temperature
  • Satellite Maps
  • Weather Map
  • Weather Widgets
  • user-avatar
    Login

    Hourly Weather Sunny Beach

    Today, 23 July, Sunday

    Time Temperature Precipitation Wind Pressure Humidity
    00:00 +23°C° 0 mm 1 mps 736 mmHg 46%
    01:00 +23°C° 0 mm 1 mps 736 mmHg 46%
    02:00 +22°C° 0 mm 1 mps 736 mmHg 47%
    03:00 +22°C° 0 mm 1 mps 736 mmHg 47%
    04:00 +22°C° 0 mm 1 mps 736 mmHg 48%
    05:00 +22°C° 0 mm 1 mps 736 mmHg 48%
    06:00 +24°C° 0 mm 1 mps 736 mmHg 44%
    07:00 +27°C° 0 mm 1 mps 736 mmHg 40%
    08:00 +29°C° 0 mm 1 mps 736 mmHg 36%
    09:00 +31°C° 0 mm 1 mps 736 mmHg 33%
    10:00 +33°C° 0 mm 1 mps 736 mmHg 30%
    11:00 +36°C° 0 mm 2 mps 736 mmHg 28%
    12:00 +37°C° 0 mm 2 mps 736 mmHg 26%
    13:00 +37°C° 0 mm 3 mps 736 mmHg 25%
    14:00 +38°C° 0 mm 3 mps 736 mmHg 23%
    15:00 +37°C° 0 mm 3 mps 735 mmHg 25%
    16:00 +37°C° 0 mm 4 mps 735 mmHg 26%
    17:00 +36°C° 0 mm 4 mps 735 mmHg 27%
    18:00 +33°C° 0 mm 4 mps 735 mmHg 31%
    19:00 +30°C° 0 mm 3 mps 734 mmHg 36%
    20:00 +28°C° 0 mm 3 mps 734 mmHg 41%
    21:00 +27°C° 0 mm 3 mps 734 mmHg 42%
    22:00 +26°C° 0 mm 2 mps 734 mmHg 44%
    23:00 +25°C° 0 mm 2 mps 734 mmHg 45%

    Tomorrow, 24 July, Monday

    Time Temperature Precipitation Wind Pressure Humidity
    00:00 +24°C° 0 mm 2 mps 734 mmHg 46%
    01:00 +24°C° 0 mm 1 mps 734 mmHg 48%
    02:00 +23°C° 0 mm 1 mps 734 mmHg 49%
    03:00 +23°C° 0 mm 1 mps 734 mmHg 50%
    04:00 +23°C° 0 mm 1 mps 734 mmHg 51%
    05:00 +22°C° 0 mm 1 mps 733 mmHg 52%
    06:00 +25°C° 0 mm 1 mps 733 mmHg 47%
    07:00 +27°C° 0 mm 1 mps 733 mmHg 42%
    08:00 +29°C° 0 mm 1 mps 733 mmHg 37%
    09:00 +31°C° 0 mm 2 mps 733 mmHg 34%
    10:00 +34°C° 0 mm 2 mps 733 mmHg 31%
    11:00 +35°C° 0 mm 3 mps 733 mmHg 27%
    12:00 +36°C° 0 mm 3 mps 733 mmHg 27%
    13:00 +37°C° 0 mm 3 mps 732 mmHg 26%
    14:00 +37°C° 0 mm 4 mps 732 mmHg 25%
    15:00 +37°C° 0 mm 4 mps 732 mmHg 26%
    16:00 +36°C° 0 mm 4 mps 731 mmHg 28%
    17:00 +35°C° 0 mm 4 mps 731 mmHg 30%
    18:00 +33°C° 0 mm 4 mps 731 mmHg 35%
    19:00 +30°C° 0 mm 4 mps 731 mmHg 41%
    20:00 +27°C° 0 mm 4 mps 731 mmHg 46%
    21:00 +26°C° 0 mm 3 mps 731 mmHg 48%
    22:00 +25°C° 0 mm 3 mps 731 mmHg 50%
    23:00 +24°C° 0 mm 3 mps 730 mmHg 51%

    Day after tomorrow, 25 July, Tuesday

    Time Temperature Precipitation Wind Pressure Humidity
    00:00 +24°C° 0 mm 2 mps 730 mmHg 51%
    01:00 +24°C° 0 mm 2 mps 730 mmHg 52%
    02:00 +23°C° 0 mm 2 mps 729 mmHg 52%
    03:00 +23°C° 0 mm 2 mps 729 mmHg 52%
    04:00 +23°C° 0 mm 2 mps 729 mmHg 52%
    05:00 +23°C° 0 mm 2 mps 728 mmHg 52%
    06:00 +25°C° 0 mm 2 mps 728 mmHg 47%
    07:00 +27°C° 0 mm 2 mps 728 mmHg 42%
    08:00 +29°C° 0 mm 3 mps 729 mmHg 38%
    09:00 +31°C° 0 mm 3 mps 728 mmHg 34%
    10:00 +34°C° 0 mm 4 mps 728 mmHg 30%
    11:00 +36°C° 0 mm 5 mps 728 mmHg 26%
    12:00 +37°C° 0 mm 5 mps 728 mmHg 25%
    13:00 +39°C° 0 mm 6 mps 727 mmHg 23%
    14:00 +40°C° 0 mm 6 mps 727 mmHg 22%
    15:00 +39°C° 0 mm 6 mps 726 mmHg 23%
    16:00 +39°C° 0 mm 6 mps 726 mmHg 23%
    17:00 +38°C° 0 mm 6 mps 726 mmHg 24%
    18:00 +35°C° 0 mm 6 mps 726 mmHg 28%
    19:00 +33°C° 0 mm 6 mps 726 mmHg 33%
    20:00 +29°C° 0 mm 5 mps 725 mmHg 37%
    21:00 +28°C° 0 mm 4 mps 726 mmHg 41%
    22:00 +27°C° 0 mm 4 mps 726 mmHg 44%
    23:00 +25°C° 0 mm 3 mps 726 mmHg 48%

    26 July, Wednesday

    Time Temperature Precipitation Wind Pressure Humidity
    00:00 +25°C° 0 mm 3 mps 726 mmHg 52%
    01:00 +24°C° 0 mm 3 mps 726 mmHg 55%
    02:00 +24°C° 0 mm 2 mps 726 mmHg 59%
    03:00 +23°C° 0 mm 2 mps 726 mmHg 63%
    04:00 +23°C° 0 mm 2 mps 726 mmHg 66%
    05:00 +21°C° 0 mm 2 mps 726 mmHg 70%
    06:00 +24°C° 0 mm 2 mps 726 mmHg 64%
    07:00 +25°C° 0 mm 2 mps 727 mmHg 59%
    08:00 +27°C° 0 mm 2 mps 727 mmHg 54%
    09:00 +29°C° 0 mm 2 mps 727 mmHg 48%
    10:00 +31°C° 0 mm 2 mps 728 mmHg 42%
    11:00 +34°C° 0 mm 2 mps 728 mmHg 37%
    12:00 +35°C° 0 mm 3 mps 728 mmHg 33%
    13:00 +36°C° 0 mm 3 mps 728 mmHg 30%
    14:00 +37°C° 0 mm 4 mps 728 mmHg 26%
    15:00 +37°C° 0 mm 4 mps 727 mmHg 27%
    16:00 +36°C° 0 mm 4 mps 727 mmHg 28%
    17:00 +36°C° 0 mm 4 mps 727 mmHg 29%
    18:00 +33°C° 0 mm 4 mps 727 mmHg 38%
    19:00 +30°C° 0 mm 3 mps 728 mmHg 46%
    20:00 +27°C° 0 mm 3 mps 728 mmHg 55%
    21:00 +26°C° 0 mm 3 mps 728 mmHg 60%
    22:00 +25°C° 0 mm 2 mps 728 mmHg 65%
    23:00 +24°C° 0 mm 2 mps 728 mmHg 70%

    27 July, Thursday

    Time Temperature Precipitation Wind Pressure Humidity
    00:00 +23°C° 0 mm 2 mps 728 mmHg 71%
    01:00 +23°C° 0 mm 1 mps 728 mmHg 73%
    02:00 +22°C° 0 mm 1 mps 729 mmHg 75%
    03:00 +22°C° 0 mm 1 mps 729 mmHg 73%
    04:00 +22°C° 0 mm 1 mps 729 mmHg 72%
    05:00 +21°C° 0 mm 1 mps 729 mmHg 71%
    06:00 +23°C° 0 mm 1 mps 729 mmHg 61%
    07:00 +26°C° 0 mm 1 mps 730 mmHg 52%
    08:00 +28°C° 0 mm 1 mps 730 mmHg 43%
    09:00 +30°C° 0 mm 1 mps 730 mmHg 37%
    10:00 +32°C° 0 mm 2 mps 731 mmHg 31%
    11:00 +35°C° 0 mm 2 mps 731 mmHg 24%
    12:00 +36°C° 0 mm 3 mps 731 mmHg 23%
    13:00 +37°C° 0 mm 3 mps 730 mmHg 22%
    14:00 +37°C° 0 mm 3 mps 730 mmHg 20%
    15:00 +37°C° 0 mm 4 mps 730 mmHg 21%
    16:00 +37°C° 0 mm 4 mps 730 mmHg 22%
    17:00 +36°C° 0 mm 4 mps 730 mmHg 23%
    18:00 +34°C° 0 mm 3 mps 730 mmHg 29%
    19:00 +31°C° 0 mm 3 mps 730 mmHg 35%
    20:00 +28°C° 0 mm 3 mps 730 mmHg 40%
    21:00 +27°C° 0 mm 2 mps 731 mmHg 45%
    22:00 +26°C° 0 mm 2 mps 731 mmHg 49%
    23:00 +25°C° 0 mm 2 mps 731 mmHg 54%

    28 July, Friday

    Time Temperature Precipitation Wind Pressure Humidity
    00:00 +24°C° 0 mm 2 mps 731 mmHg 58%
    01:00 +23°C° 0 mm 1 mps 731 mmHg 62%
    02:00 +22°C° 0 mm 1 mps 731 mmHg 66%
    03:00 +22°C° 0 mm 1 mps 731 mmHg 67%
    04:00 +21°C° 0 mm 1 mps 732 mmHg 69%
    05:00 +21°C° 0 mm 1 mps 732 mmHg 71%
    06:00 +23°C° 0 mm 1 mps 732 mmHg 63%
    07:00 +25°C° 0 mm 1 mps 732 mmHg 56%
    08:00 +28°C° 0 mm 1 mps 733 mmHg 48%
    09:00 +30°C° 0 mm 1 mps 733 mmHg 42%
    10:00 +32°C° 0 mm 1 mps 733 mmHg 35%
    11:00 +35°C° 0 mm 2 mps 733 mmHg 28%
    12:00 +36°C° 0 mm 2 mps 733 mmHg 26%
    13:00 +36°C° 0 mm 2 mps 733 mmHg 24%
    14:00 +37°C° 0 mm 3 mps 733 mmHg 22%
    15:00 +37°C° 0 mm 3 mps 733 mmHg 24%
    16:00 +36°C° 0 mm 3 mps 732 mmHg 25%
    17:00 +35°C° 0 mm 4 mps 732 mmHg 27%
    18:00 +33°C° 0.1 mm 3 mps 732 mmHg 37%
    19:00 +29°C° 0.1 mm 3 mps 733 mmHg 46%
    20:00 +26°C° 0.1 mm 2 mps 733 mmHg 56%
    21:00 +26°C° 0.1 mm 2 mps 733 mmHg 59%
    22:00 +25°C° 0.1 mm 1 mps 733 mmHg 61%
    23:00 +25°C° 0.1 mm 1 mps 733 mmHg 64%
    Show more